N5AEH Weather Reports


time (UTC)temp
C
wind
direction
speed
KPH
gust
KPH
rain 1hr
cm
rain 24hr
cm
rain mn
cm
humidity
%
barometer
mb
20260504202140 21 238 0.0 0.0 0.00 0.00 0.00 36 1008.6
20260504201637 21 229 1.6 1.6 0.00 0.00 0.00 35 1008.5
20260504201135 21 227 1.6 1.6 0.00 0.00 0.00 37 1008.4
20260504200631 21 237 0.0 1.6 0.00 0.00 0.00 35 1008.8
20260504200128 21 255 3.2 3.2 0.00 0.00 0.00 36 1008.4
20260504195624 22 221 3.2 3.2 0.00 0.00 0.00 35 1008.6
20260504195120 23 236 1.6 3.2 0.00 0.00 0.00 34 1008.9
20260504194617 23 218 0.0 1.6 0.00 0.00 0.00 34 1008.6
20260504194113 22 230 1.6 3.2 0.00 0.00 0.00 33 1008.7
20260504193609 23 214 0.0 1.6 0.00 0.00 0.00 34 1008.9
20260504193108 22 237 3.2 3.2 0.00 0.00 0.00 34 1008.9
20260504192606 21 233 0.0 0.0 0.00 0.00 0.00 38 1009.1
20260504192104 21 233 0.0 0.0 0.00 0.00 0.00 38 1008.9
20260504191602 23 240 1.6 1.6 0.00 0.00 0.00 35 1009.2
20260504191057 23 226 0.0 1.6 0.00 0.00 0.00 34 1008.9
20260504190554 22 226 1.6 1.6 0.00 0.00 0.00 34 1009.3
20260504190050 24 230 4.8 4.8 0.00 0.00 0.00 34 1009.0
20260504185547 23 250 1.6 3.2 0.00 0.00 0.00 33 1009.3
20260504185044 23 286 3.2 3.2 0.00 0.00 0.00 36 1009.1
20260504184539 23 255 0.0 0.0 0.00 0.00 0.00 34 1009.2
20260504184035 22 227 1.6 1.6 0.00 0.00 0.00 35 1009.3
20260504183532 22 223 4.8 8.0 0.00 0.00 0.00 34 1009.3
20260504183030 22 232 1.6 1.6 0.00 0.00 0.00 38 1009.4
20260504182527 21 218 1.6 1.6 0.00 0.00 0.00 40 1009.3
20260504182024 20 234 0.0 0.0 0.00 0.00 0.00 40 1009.5
20260504181521 21 212 1.6 3.2 0.00 0.00 0.00 38 1009.7
20260504181014 22 217 1.6 1.6 0.00 0.00 0.00 36 1009.7
20260504180512 21 229 0.0 0.0 0.00 0.00 0.00 37 1009.5
20260504180011 21 203 4.8 4.8 0.00 0.00 0.00 39 1009.5
20260504175508 20 230 0.0 1.6 0.00 0.00 0.00 42 1009.6
20260504175004 18 216 0.0 0.0 0.00 0.00 0.00 48 1009.6
20260504174502 16 224 0.0 0.0 0.00 0.00 0.00 55 1009.8
20260504173959 13 228 0.0 0.0 0.00 0.00 0.00 66 1010.0
20260504173455 13 228 0.0 0.0 0.00 0.00 0.00 70 1010.2
20260504172953 13 228 0.0 0.0 0.00 0.00 0.00 71 1010.3
20260504172448 13 228 0.0 0.0 0.00 0.00 0.00 67 1010.4
20260504171946 13 228 1.6 3.2 0.00 0.00 0.00 61 1010.3
20260504171443 14 222 0.0 0.0 0.00 0.00 0.00 63 1010.2
20260504170939 15 230 0.0 0.0 0.00 0.00 0.00 59 1010.1
20260504170436 15 237 0.0 0.0 0.00 0.00 0.00 54 1010.0
20260504160355 15 235 0.0 0.0 0.00 0.00 0.00 48 1010.1
20260504150820 18 236 0.0 1.6 0.00 0.00 0.00 42 1009.8
20260504150316 18 253 3.2 4.8 0.00 0.00 0.00 40 1009.9
20260504141246 16 226 1.6 3.2 0.00 0.00 0.00 45 1010.4
20260504140742 16 274 1.6 3.2 0.00 0.00 0.00 43 1010.7
20260504140238 17 231 0.0 1.6 0.00 0.00 0.00 43 1010.8
20260504130707 12 223 0.0 0.0 0.00 0.00 0.00 65 1011.3
20260504130203 12 223 0.0 0.0 0.00 0.00 0.00 63 1011.4
20260504120127 10 224 0.0 0.0 0.00 0.00 0.00 66 1012.2
20260504110554 2 223 0.0 0.0 0.00 0.00 0.00 90 1012.4
20260504100516 1 223 0.0 0.0 0.00 0.00 0.00 91 1012.6
20260504081909 1 223 0.0 0.0 0.00 0.00 0.00 90 1012.4
20260504081406 1 223 0.0 0.0 0.00 0.00 0.00 90 1012.4
20260504080902 1 223 0.0 0.0 0.00 0.00 0.00 90 1012.4
20260504080359 1 223 0.0 0.0 0.00 0.00 0.00 90 1012.4
20260504070326 0 223 0.0 0.0 0.00 0.00 0.00 91 1012.3
20260504060247 -1 223 0.0 0.0 0.00 0.00 0.00 92 1012.1
20260504050715 -1 223 0.0 0.0 0.00 0.00 0.00 92 1012.1
20260504050213 -1 223 0.0 0.0 0.00 0.00 0.00 92 1012.2
20260504045710 -2 223 0.0 0.0 0.00 0.00 0.00 92 1012.1
20260504045209 -2 223 0.0 0.0 0.00 0.00 0.00 91 1012.1
20260504044708 -2 223 0.0 0.0 0.00 0.00 0.00 91 1012.1
20260504044205 -2 223 0.0 0.0 0.00 0.00 0.00 91 1012.2
20260504043702 -2 223 0.0 0.0 0.00 0.00 0.00 91 1012.1
20260504043158 -2 223 0.0 0.0 0.00 0.00 0.00 91 1012.3
20260504042655 -2 223 0.0 0.0 0.00 0.00 0.00 91 1012.3
20260504042152 -2 223 0.0 0.0 0.00 0.00 0.00 90 1012.4
20260504041648 -2 223 0.0 0.0 0.00 0.00 0.00 90 1012.3
20260504041144 -1 223 0.0 0.0 0.00 0.00 0.00 90 1012.3
20260504040641 -1 223 0.0 0.0 0.00 0.00 0.00 89 1012.3
20260504040138 -1 223 0.0 0.0 0.00 0.00 0.00 89 1012.3
20260504035635 -1 223 0.0 0.0 0.00 0.03 0.03 89 1012.2
20260504035131 -1 223 0.0 0.0 0.00 0.03 0.03 89 1012.3
20260504034629 -1 223 0.0 0.0 0.00 0.03 0.03 89 1012.1
20260504034126 -1 223 0.0 0.0 0.00 0.03 0.03 88 1012.0
20260504033624 -1 223 0.0 0.0 0.00 0.03 0.03 88 1012.1
20260504033121 -1 223 0.0 0.0 0.00 0.03 0.03 88 1012.0
20260504032618 -1 223 0.0 0.0 0.00 0.03 0.03 88 1011.9
20260504032115 -1 223 0.0 0.0 0.00 0.03 0.03 88 1012.0
20260504031612 -1 223 0.0 0.0 0.00 0.03 0.03 88 1012.0
20260504031108 -1 223 0.0 0.0 0.00 0.03 0.03 88 1012.2
20260504030605 0 223 0.0 0.0 0.00 0.03 0.03 87 1012.2
20260504030101 0 223 0.0 0.0 0.00 0.03 0.03 87 1012.2
20260504025558 0 223 0.0 0.0 0.00 0.03 0.03 86 1012.1
20260504025056 0 223 0.0 0.0 0.00 0.03 0.03 86 1012.0
20260504024553 0 223 0.0 0.0 0.00 0.03 0.03 87 1012.3
20260504024049 0 223 0.0 0.0 0.00 0.03 0.03 86 1012.1
20260504023546 0 223 0.0 0.0 0.00 0.03 0.03 86 1012.1
20260504023042 0 223 0.0 0.0 0.00 0.03 0.03 86 1012.2
20260504022538 0 223 0.0 0.0 0.00 0.03 0.03 85 1012.2
20260504022034 0 223 0.0 0.0 0.00 0.03 0.03 85 1012.4
20260504021532 0 223 0.0 0.0 0.00 0.03 0.03 84 1012.4
20260504021028 0 223 0.0 0.0 0.00 0.03 0.03 84 1012.4
20260504020525 0 223 0.0 0.0 0.00 0.03 0.03 83 1012.2
20260504020022 1 223 0.0 0.0 0.00 0.03 0.03 82 1012.1
20260504015518 1 223 0.0 0.0 0.00 0.03 0.03 82 1012.2
20260504015014 1 223 0.0 0.0 0.00 0.03 0.03 82 1012.2
20260504014510 1 223 0.0 0.0 0.00 0.03 0.03 81 1012.3
20260504014008 1 223 0.0 0.0 0.00 0.03 0.03 81 1012.1
20260504013506 1 223 0.0 0.0 0.00 0.03 0.03 80 1012.0
20260504013001 2 223 0.0 0.0 0.00 0.03 0.03 79 1012.0
20260504012500 2 223 0.0 0.0 0.00 0.03 0.03 79 1012.0
20260504011957 2 223 0.0 0.0 0.00 0.03 0.03 79 1012.2
20260504011453 2 223 0.0 0.0 0.00 0.03 0.03 79 1011.8
20260504010949 2 223 0.0 0.0 0.00 0.03 0.03 78 1011.9
20260504010446 2 223 0.0 0.0 0.00 0.03 0.03 78 1011.8
20260504005942 2 223 0.0 0.0 0.00 0.03 0.03 77 1011.6
20260504005439 3 223 0.0 0.0 0.00 0.03 0.03 76 1011.7
20260504004936 3 223 0.0 0.0 0.00 0.03 0.03 74 1011.6
20260504004434 3 223 0.0 0.0 0.00 0.03 0.03 74 1011.7
20260504003930 3 223 0.0 0.0 0.00 0.03 0.03 74 1011.6
20260504003427 3 223 0.0 0.0 0.00 0.03 0.03 74 1011.5
20260504002924 3 223 0.0 0.0 0.00 0.03 0.03 73 1011.5
20260504002420 4 223 0.0 0.0 0.00 0.03 0.03 70 1011.3
20260504001918 4 223 0.0 0.0 0.00 0.03 0.03 70 1011.5
20260504001416 4 223 0.0 0.0 0.00 0.03 0.03 70 1011.1
20260504000912 5 223 0.0 0.0 0.00 0.03 0.03 68 1011.3
20260504000409 5 223 0.0 0.0 0.00 0.03 0.03 67 1011.3
20260503235906 5 223 0.0 0.0 0.00 0.03 0.03 65 1011.2
20260503235404 5 223 0.0 0.0 0.00 0.03 0.03 67 1011.0
20260503234901 5 223 0.0 0.0 0.00 0.03 0.03 67 1010.8
20260503234359 5 222 0.0 0.0 0.00 0.03 0.03 66 1011.0
20260503233856 5 222 0.0 0.0 0.00 0.03 0.03 65 1011.0
20260503233353 5 222 0.0 0.0 0.00 0.03 0.03 65 1010.8
20260503232849 6 221 0.0 0.0 0.00 0.03 0.03 65 1010.7
20260503232347 6 221 0.0 0.0 0.00 0.03 0.03 63 1010.8
20260503231845 6 220 0.0 0.0 0.00 0.03 0.03 62 1010.9
20260503231341 6 223 1.6 3.2 0.00 0.03 0.03 61 1010.5
20260503230837 6 220 0.0 0.0 0.00 0.03 0.03 64 1010.7
20260503230334 6 220 0.0 0.0 0.00 0.03 0.03 61 1010.8
20260503225833 6 217 0.0 0.0 0.00 0.03 0.03 60 1010.9
20260503225328 7 212 0.0 0.0 0.00 0.03 0.03 57 1010.4
20260503224824 7 230 0.0 1.6 0.00 0.03 0.03 56 1010.5
20260503224321 7 231 0.0 0.0 0.00 0.03 0.03 58 1010.5
20260503223819 7 232 0.0 0.0 0.00 0.03 0.03 57 1010.5
20260503223317 7 232 1.6 1.6 0.00 0.03 0.03 57 1010.4
20260503222812 7 230 0.0 0.0 0.00 0.03 0.03 55 1010.7
20260503222311 7 231 0.0 0.0 0.00 0.03 0.03 55 1010.5
20260503221809 7 224 0.0 0.0 0.00 0.03 0.03 57 1010.4
20260503221307 7 226 1.6 1.6 0.00 0.03 0.03 54 1010.3
20260503220802 8 226 3.2 4.8 0.00 0.03 0.03 52 1010.2
20260503220300 8 223 0.0 0.0 0.00 0.03 0.03 55 1010.3
20260503215756 8 220 0.0 0.0 0.00 0.03 0.03 54 1010.3
20260503215253 8 221 0.0 0.0 0.00 0.03 0.03 51 1010.2
20260503214751 8 143 0.0 1.6 0.00 0.03 0.03 51 1010.2
20260503214248 9 230 0.0 1.6 0.00 0.03 0.03 50 1010.3
20260503213746 9 252 1.6 3.2 0.00 0.03 0.03 49 1010.1
20260503213243 9 78 3.2 4.8 0.00 0.03 0.03 52 1010.3
20260503212740 10 207 1.6 3.2 0.00 0.03 0.03 49 1010.3
20260503212238 10 223 0.0 1.6 0.00 0.03 0.03 49 1010.2
20260503211735 10 224 0.0 0.0 0.00 0.03 0.03 51 1010.2
20260503211231 9 216 0.0 0.0 0.00 0.03 0.03 49 1010.5
20260503210726 9 207 1.6 3.2 0.00 0.03 0.03 48 1010.3
20260503210224 8 227 3.2 4.8 0.00 0.03 0.03 48 1010.2
20260503205719 8 226 0.0 0.0 0.00 0.03 0.03 53 1010.3
20260503205216 9 186 0.0 0.0 0.00 0.03 0.03 48 1010.2
20260503204712 9 234 0.0 0.0 0.00 0.03 0.03 48 1010.0
20260503204210 9 241 0.0 0.0 0.00 0.03 0.03 48 1009.9
20260503203707 9 240 0.0 1.6 0.00 0.03 0.03 48 1010.2
20260503203205 9 231 3.2 3.2 0.00 0.03 0.03 47 1010.0
20260503202701 8 238 0.0 0.0 0.00 0.03 0.03 51 1010.0